RH
25 22 20 23 27 18 15 35 40 40 66 72 97 100 99 97 55 63 68 61 83 87 82 72 61 54 77 94 96 75 47 50 49 43 46 47 46 43 44 40 40 43 46 33
80 37 48 49 74 26 64 68 34 47 76 98 100 96 87 100 96 92 91 90 83 87 88 78 61 56 60 87 95 94 80 52 39 42 46 45 56 61 58 60 56 46 52 38
63 93 100 100 91 99 90 96 98 76 77 93 99 100 94 100 66 96 100 90 77 98 93 84 71 65 45 59 91 92 86 77 54 32 37 52 69 68 65 62 57 47 45 43
78 78 100 100 83 98 89 98 93 99 94 83 81 95 93 98 100 97 98 97 87 95 93 85 80 72 63 46 54 92 92 90 70 65 66 62 63 62 60 59 60 56 48 47
99 99 99 92 97 97 82 100 100 94 100 100 87 91 82 100 98 98 100 95 99 93 94 97 83 86 83 78 55 52 58 63 71 62 53 62 62 58 55 54 51 51 49 47
97 97 97 94 90 97 83 94 96 92 83 100 100 97 95 95 98 98 99 99 99 82 77 100 100 100 100 76 66 58 87 83 60 45 51 50 45 44 43 48 46 42 36 33
98 100 92 96 95 97 83 90 92 98 90 100 100 100 99 100 99 99 98 93 89 92 94 94 92 90 85 78 62 62 80 89 85 59 66 55 34 28 22 28 35 37 38 39
99 98 74 94 98 99 86 83 93 97 89 85 97 100 100 100 98 94 97 92 94 94 96 96 100 99 100 87 65 61 60 99 85 74 59 46 46 34 34 38 29 27 57 63
96 79 73 89 97 99 75 70 88 91 94 97 98 99 100 100 100 85 80 97 96 96 96 97 92 74 75 88 99 89 73 90 85 89 58 56 44 22 26 25 44 71 73 80
96 92 91 91 86 78 65 71 82 97 94 56 92 100 100 94 94 90 93 90 96 97 95 96 91 81 90 81 84 99 100 100 89 76 83 65 48 53 40 66 73 60 54 64
92 95 96 96 97 97 92 73 83 91 93 84 92 84 90 94 94 95 94 97 97 97 97 99 95 90 78 75 89 97 93 89 87 75 84 82 63 46 65 87 65 54 42 42
86 94 95 96 97 95 95 73 78 86 96 91 83 83 91 92 95 96 95 95 94 94 98 93 94 95 86 72 67 91 92 74 69 68 67 68 71 77 76 68 59 52 50 39
91 89 93 98 98 98 98 69 69 83 96 96 91 88 83 95 94 96 94 95 95 89 90 96 98 96 91 84 73 68 76 82 88 82 72 66 73 74 46 47 50 52 68 66
96 97 97 97 95 98 97 81 70 98 99 99 75 89 78 76 93 94 97 93 95 94 96 98 96 94 86 88 80 80 72 78 84 75 74 72 80 56 50 61 58 62 66 64
94 96 96 96 97 95 92 89 97 96 94 97 94 82 75 75 88 93 96 96 97 94 97 96 90 88 92 79 82 84 80 78 83 76 79 79 66 72 65 68 69 68 68 62
96 97 96 96 96 97 96 98 97 97 97 97 100 90 56 70 78 95 96 97 97 97 98 95 95 91 97 94 90 85 83 76 69 77 63 64 63 58 55 60 60 62 59 51
96 96 96 96 95 96 96 94 79 90 96 96 89 94 72 76 78 86 92 96 93 96 97 94 96 90 89 100 94 86 71 69 71 68 68 70 60 57 59 68 69 75 85 75
96 96 95 96 95 96 95 87 89 95 97 96 93 77 66 71 59 69 80 96 92 84 96 90 82 93 96 98 85 77 76 81 81 68 70 70 61 56 63 82 99 90 88 76
97 97 97 97 97 96 96 91 93 95 94 92 81 74 66 71 72 81 84 83 95 90 87 97 98 92 96 90 90 93 86 81 79 73 79 74 68 73 76 91 100 98 82 82
97 97 98 97 93 93 97 96 98 98 97 88 72 64 61 69 89 87 88 89 94 92 92 97 96 92 81 91 88 84 73 71 75 82 79 82 80 87 89 99 100 97 98 100
97 97 95 79 92 95 97 96 96 91 85 76 77 73 68 69 96 91 88 91 91 88 97 94 95 84 72 70 66 69 78 80 77 87 87 89 93 94 91 93 97 98 97 100
92 82 71 76 97 95 93 88 91 86 83 71 69 68 66 72 83 97 92 93 90 96 89 98 94 77 76 75 78 89 95 89 87 90 94 94 94 97 97 96 98 96 96 97
92 94 97 91 93 95 95 100 100 100 91 88 83 82 83 80 84 98 89 98 98 97 100 98 86 72 73 78 88 90 90 93 97 97 96 95 95 95 96 96 96 96 96 97
88 73 75 79 74 74 81 79 77 78 86 93 100 100 97 98 97 96 97 96 94 98 97 94 79 78 78 84 90 95 96 97 97 97 96 95 95 96 96 96 96 96 96 95
70 64 59 72 72 75 82 82 82 85 91 100 97 96 96 97 94 92 93 96 96 96 95 78 84 89 96 97 97 96 96 96 97 96 96 96 95 96 96 96 95 96 96 96
69 71 75 84 92 98 97 96 89 91 97 96 96 93 93 93 90 91 91 94 99 91 92 96 97 98 96 96 96 97 97 97 96 96 96 96 96 96 96 96 95 95 95 96
80 94 93 94 99 100 100 98 96 94 88 97 84 72 76 88 86 92 90 92 87 93 97 100 99 98 97 96 97 96 97 97 96 96 96 96 96 95 95 95 93 83 52 33
Wind_Speed
35 31 31 28 25 22 24 21 22 13 13 21 26 27 18 19 18 17 24 22 18 13 11 12 8 5 4 5 6 8 19 10 12 15 6 14 19 23 26 19 13 12 9 10
29 31 28 28 22 24 18 22 24 16 17 20 26 21 23 18 18 16 12 14 19 15 12 9 7 5 8 12 7 4 8 12 15 14 11 12 9 8 12 12 10 15 11 5
30 28 24 24 24 22 21 19 16 19 26 25 21 20 23 20 22 19 15 15 20 14 15 14 9 6 12 11 10 4 5 7 13 14 11 11 12 8 7 9 11 14 17 14
27 28 27 27 25 23 25 26 24 16 11 28 31 21 17 20 19 19 17 17 22 17 15 17 14 9 8 10 14 9 4 4 5 4 3 4 8 11 9 10 10 10 13 13
25 26 25 27 24 25 32 31 30 25 19 13 13 28 30 22 16 18 16 19 12 17 24 19 9 9 10 11 7 12 13 7 6 7 6 8 10 11 12 14 14 16 19 22
30 28 29 27 30 31 34 33 31 22 22 22 21 21 19 24 21 24 23 16 18 21 18 17 20 19 19 20 13 13 12 9 9 12 10 8 12 19 18 16 15 14 15 14
32 33 33 30 32 35 37 33 30 31 31 20 21 22 21 20 19 21 18 24 26 22 21 19 16 15 18 19 25 19 11 11 11 7 7 7 8 11 14 14 13 11 12 14
33 30 30 30 33 36 41 35 33 32 32 28 28 25 21 19 21 22 27 25 20 24 16 14 11 11 10 15 19 26 21 11 9 8 18 12 13 11 12 9 8 7 1 6
30 29 30 35 37 38 39 37 32 35 33 18 21 24 22 22 23 25 27 27 24 20 11 12 8 8 6 7 7 20 19 19 15 9 10 6 6 14 11 13 4 6 8 9
28 27 29 30 31 32 36 35 37 36 41 36 24 22 23 22 24 26 23 21 29 18 17 13 10 9 7 5 9 16 20 19 24 21 11 7 14 9 9 7 5 6 9 12
29 29 30 31 33 34 38 35 36 39 40 32 24 27 30 25 23 21 23 21 27 20 21 14 8 8 10 9 6 11 20 17 18 19 11 8 9 15 9 9 8 13 17 18
28 29 30 31 31 32 35 38 37 36 38 28 26 32 33 30 19 23 21 23 12 20 20 17 12 11 10 12 12 13 12 16 15 14 12 7 9 8 14 13 19 24 29 29
27 29 29 30 32 34 37 34 34 36 36 39 39 35 23 22 27 18 25 25 24 16 24 12 14 10 12 14 16 13 16 14 18 12 14 12 15 18 24 25 26 25 20 19
24 23 23 24 29 33 40 39 35 35 39 38 32 15 25 18 19 22 18 24 19 26 21 22 15 13 10 12 13 14 15 14 18 19 19 18 19 27 27 25 25 22 23 26
26 25 24 25 28 30 34 34 30 32 34 12 33 26 16 21 20 24 23 23 22 24 28 26 24 24 19 18 18 16 16 17 18 17 18 19 18 24 27 28 30 32 32 32
23 25 24 25 26 32 35 35 33 30 30 22 14 20 15 21 16 18 25 22 19 21 17 19 22 24 18 13 18 15 24 22 23 25 22 23 23 23 26 27 27 28 28 27
20 20 24 28 30 33 37 33 33 34 32 30 11 20 21 15 20 20 26 24 22 23 26 28 24 21 20 27 25 23 24 24 21 24 18 22 29 25 24 26 26 23 20 20
24 24 23 28 28 27 28 27 21 26 30 27 11 9 17 21 19 18 29 27 26 31 30 30 28 26 25 25 27 28 31 30 30 28 27 27 28 31 32 25 18 19 23 28
27 26 29 28 25 24 26 20 23 19 28 14 15 17 11 14 22 20 18 25 18 21 29 19 20 23 13 24 30 28 25 25 26 27 28 29 30 32 30 25 28 28 30 32
33 33 34 40 31 32 21 15 28 33 26 18 13 17 14 12 15 18 20 19 22 8 17 10 19 23 25 23 23 27 30 31 28 28 32 31 32 28 26 28 29 29 22 22
36 34 21 31 26 21 22 10 15 12 12 19 25 21 20 15 20 19 17 11 11 11 10 15 9 21 30 31 31 29 32 33 31 28 26 26 28 28 25 24 22 21 23 22
38 31 33 32 27 10 7 12 10 9 9 9 19 26 22 17 10 16 19 10 10 7 12 11 8 22 20 19 23 25 26 25 22 21 20 21 21 24 24 23 20 18 16 15
26 36 27 9 6 6 10 10 9 8 12 14 13 14 17 18 17 10 13 9 10 6 10 8 18 19 20 20 18 16 17 16 15 14 14 11 9 9 10 9 9 7 6 6
21 14 10 6 6 7 8 18 16 13 13 15 13 13 14 15 13 6 6 9 10 9 6 7 11 14 16 14 11 9 8 7 6 5 3 1 2 4 5 6 7 8 7 8
6 5 6 7 7 11 14 17 16 13 14 17 13 12 9 10 6 5 5 8 6 9 9 12 13 11 8 5 3 2 2 5 6 8 9 10 11 10 10 11 12 11 10 9
8 5 7 11 14 16 17 16 13 15 19 17 8 5 5 5 5 6 6 8 5 7 8 8 8 8 8 9 11 13 15 15 15 14 13 13 12 11 9 9 7 5 4 3
5 11 14 13 14 14 14 14 13 16 18 15 5 4 3 4 4 4 4 5 6 8 10 11 13 15 18 19 18 16 14 12 11 9 8 6 5 4 4 3 5 6 6 7
Wind_Direction
262 259 252 251 250 239 245 247 251 248 219 213 216 226 225 229 242 236 235 247 264 279 293 296 297 307 321 355 54 195 214 216 181 168 177 189 210 224 221 223 204 227 258 231
262 254 248 243 237 229 228 239 249 221 211 218 221 228 229 230 230 231 227 234 245 252 265 280 269 269 254 294 5 84 185 216 211 227 236 222 191 189 189 206 224 234 231 217
256 249 237 237 225 222 218 226 235 238 218 215 222 232 233 232 235 232 230 237 251 262 261 254 257 257 244 251 283 197 135 186 217 224 221 201 202 187 178 203 217 240 240 259
255 249 235 230 223 215 215 223 230 215 224 225 219 212 224 228 225 236 234 244 242 244 251 242 237 256 275 258 248 260 243 196 189 170 168 182 196 201 207 216 225 232 254 253
247 240 238 231 210 217 218 221 226 223 224 218 217 227 228 230 224 229 233 233 242 241 245 233 237 244 271 270 230 228 229 244 240 252 254 257 256 240 233 237 242 250 259 267
242 239 229 227 212 218 219 222 224 228 233 230 225 228 233 233 237 239 234 233 236 266 257 256 252 253 249 240 233 211 203 209 216 253 260 270 267 250 244 244 246 252 263 270
243 236 229 220 213 220 221 224 225 227 225 213 227 233 233 237 241 236 244 242 254 261 250 252 251 252 242 235 226 219 191 209 200 232 222 238 251 239 238 241 252 261 268 283
242 241 227 216 216 220 221 218 219 224 240 237 236 235 241 245 253 248 234 249 260 257 261 248 234 232 237 245 231 220 208 204 208 214 218 263 271 238 234 240 244 263 247 309
235 229 223 219 221 223 221 217 221 224 224 223 230 238 238 244 251 261 254 240 252 262 239 210 206 215 201 191 194 206 214 210 214 211 233 238 214 164 182 221 245 159 329 322
230 226 223 223 220 218 217 219 219 224 232 233 226 233 239 243 246 252 268 246 235 254 236 219 214 224 203 210 192 175 190 203 214 222 229 246 197 225 202 192 157 272 300 320
227 223 220 220 220 216 215 215 217 222 229 234 236 243 250 253 252 250 247 251 231 226 207 208 200 222 214 229 205 177 188 194 205 219 230 241 234 215 198 215 223 288 297 298
220 217 218 217 216 215 217 216 216 219 227 243 243 249 256 258 263 242 234 229 234 223 211 218 216 210 211 216 224 211 208 201 202 203 225 215 146 167 216 242 269 290 297 295
211 206 209 221 223 219 220 221 212 214 225 241 249 250 252 255 239 238 225 224 226 217 218 216 215 212 212 214 222 230 234 228 233 234 229 245 268 269 274 278 280 293 298 311
211 213 216 222 216 215 208 213 201 205 227 236 247 248 240 231 232 222 227 220 226 229 224 219 223 219 223 229 229 231 227 231 236 243 244 250 259 265 266 278 284 274 288 299
213 211 207 205 198 191 192 199 208 216 214 239 238 239 248 211 224 218 208 212 219 230 228 230 250 242 241 243 240 241 237 238 239 246 248 251 262 271 274 274 274 276 280 291
199 199 197 192 180 179 187 198 209 204 213 225 205 212 182 178 192 204 211 226 217 234 232 242 243 242 240 238 244 243 242 243 246 250 259 274 275 281 288 275 279 283 284 284
174 171 179 182 180 182 183 190 199 200 202 209 183 183 198 212 215 218 216 203 211 224 234 240 244 254 252 251 247 255 253 255 259 264 270 276 278 274 283 280 289 277 279 280
176 166 155 163 172 176 188 194 189 192 193 200 192 197 203 216 225 220 221 223 233 237 238 243 243 248 251 234 253 256 254 260 269 275 277 281 279 284 290 278 279 273 276 286
162 158 158 155 167 173 173 174 193 206 191 180 193 194 195 209 221 224 219 215 229 234 237 221 216 225 235 245 250 254 260 263 269 275 276 282 286 291 287 268 266 272 282 279
156 153 157 158 163 172 168 148 169 186 185 182 183 193 205 214 202 208 212 217 229 252 221 205 215 231 240 251 262 260 259 268 268 270 276 281 283 287 282 277 272 274 282 287
152 157 144 151 152 158 162 164 168 172 190 208 214 212 210 208 189 193 194 214 203 218 206 196 219 241 253 259 262 263 261 267 277 278 278 275 273 273 276 275 276 275 275 275
152 150 149 147 153 130 152 159 171 174 190 200 200 205 210 207 217 208 198 200 191 216 200 199 233 244 248 256 258 258 260 265 276 281 281 281 274 265 263 270 275 273 264 266
151 136 151 113 124 144 161 169 169 178 173 178 171 190 203 217 214 199 177 196 200 192 181 213 237 247 248 250 251 257 268 277 276 280 287 291 281 269 266 270 270 266 258 244
132 142 162 174 166 171 169 177 176 179 176 181 179 179 182 177 169 171 147 166 169 177 210 223 227 229 243 249 257 271 282 292 298 297 296 309 64 87 106 112 110 100 108 112
159 176 194 194 192 177 170 171 173 177 174 168 161 166 143 121 131 165 149 177 179 200 211 219 217 218 220 223 215 188 142 127 122 114 108 107 103 103 108 106 102 100 93 88
217 215 156 157 149 147 152 159 165 166 167 170 164 111 145 156 168 180 184 173 193 217 211 193 184 175 163 146 133 128 126 122 118 116 113 109 104 99 91 84 80 72 61 36
113 123 133 140 143 145 148 151 159 167 171 168 159 177 174 170 196 189 188 187 186 171 163 155 146 139 136 132 132 131 127 122 119 113 105 99 95 82 61 30 356 349 342 333